User: anonymous
Location: Unspecified
(0.0000°N, 0.0000°E)
Time: 13:50:56
(UTC+00:00)
Language:

GSAT 7 - Orbit

View from above orbital plane
View from above orbital plane
View from above satellite
View from above satellite

Ground track
Ground track

The orbit data is extracted from the following two-line orbital elements,

1 39234U 13044B   14270.88137149 -.00000087  00000-0  00000+0 0  3380
2 39234 000.0068 233.2197 0008410 024.3062 140.3717 01.00272671  3994
Epoch (UTC): 27 September 2014 21:09:10
Eccentricity: 0.0008410
inclination: 0.0068°
perigee height: 35750 km
apogee height: 35821 km
right ascension of ascending node: 233.2197°
argument of perigee: 24.3062°
revolutions per day: 1.00272671
mean anomaly at epoch: 140.3717°
orbit number at epoch: 399

The dashed part of the orbit path shows where the satellite is in the earth's shadow,  

DLR